Regional Weather Roundup
Issued by NWS

Home | Current Version | Previous Version | Text Only | Print | Product List | Glossary On
Versions: 1 2 3 4 5 6 7 8 9 10 11 12 13 14 15 16 17 18 19 20 21 22 23 24 25 26 27 28 29 30 31 32 33 34 35 36 37 38 39 40 41 42 43 44 45 46 47 48 49 50
000
ASUS43 KDTX 211510
RWRMI
MICHIGAN HOURLY REGIONAL WEATHER ROUNDUP
NATIONAL WEATHER SERVICE DETROIT/PONTIAC MI
1000 AM EST WED FEB 21 2018

NOTE: "FAIR" INDICATES FEW OR NO CLOUDS BELOW 12,000 FEET WITH NO
SIGNIFICANT WEATHER AND/OR OBSTRUCTION TO VISIBILITY.

MIZ047>049-052>055-059>063-066>070-074>076-081>083-211600-
SOUTHEAST LOWER MICHIGAN

CITY           SKY/WX    TMP DP  RH WIND       PRES   REMARKS
ADRIAN         LGT RAIN  35  32  88 N10       30.40R WCI  27
ALMA           CLOUDY    33  31  94 W7        30.43R WCI  26
ANN ARBOR      MIX PCPN  36  34  92 NW13      30.37R WCI  27
BAD AXE        FLURRIES  32  31  96 N10       30.39R WCI  23
CARO           CLOUDY    33  31  90 NW13      30.38R WCI  24
DETROIT CITY   LGT RAIN  39  35  86 N14G20    30.36R WCI  31
DETROIT        LGT RAIN  39  35  86 N16       30.36R WCI  30
FLINT          CLOUDY    34  31  88 N12       30.39R WCI  25
GROSSE ILE     LGT RAIN  38  36  91 N13       30.35R WCI  31
HILLSDALE      CLOUDY    32  30  93 NW12      30.37R WCI  23
HOWELL         CLOUDY    34  33  94 NW9       30.38R WCI  27

CITY           SKY/WX    TMP DP  RH WIND       PRES   REMARKS
JACKSON        PTSUNNY   34  32  92 NW8       30.38R WCI  27
LAMBERTVILLE   LGT RAIN  38  35  90 NW8       30.38R WCI  32
LANSING        CLOUDY    33  30  88 NW9       30.42R WCI  25
LAPEER         CLOUDY    35  32  91 N12       30.37R WCI  26
MASON          CLOUDY    35  31  84 NW9       30.40R WCI  28
MONROE         LGT RAIN  38  36  91 NW8       30.36R WCI  33
MT. CLEMENS    LGT RAIN  37  37 100 N14       30.35R WCI  29
PONTIAC        CLOUDY    35  33  92 N13       30.34R WCI  26
PORT HOPE        N/A     32  25  75 N10G21    30.38R WCI  24
PORT HURON     MIX PCPN  32  30  93 N9G16     30.38R WCI  24
TRI CITIES     CLOUDY    33  27  78 N10       30.41R WCI  25
MIDLAND        CLOUDY    32  27  82 N9        30.41R WCI  24
TROY           RAIN      38  35  91 N5        30.38R WCI  34
SAGINAW HB     FAIR      32  30  93 NW13      30.40R WCI  22
$$
MIZ043>046-050>051-056>058-064>065-071>073-077>080-211600-
SOUTHWEST LOWER MICHIGAN

CITY           SKY/WX    TMP DP  RH WIND       PRES   REMARKS
BATTLE CREEK   CLOUDY    32  29  88 N10       30.41R WCI  24
BENTON HARBOR  CLOUDY    31  26  82 VRB7      30.47R WCI  24
BIG RAPIDS     CLOUDY    28  22  75 N10       30.42R WCI  19
COLDWATER      CLOUDY    33  33 100 NW10      30.42R WCI  24
FREMONT        CLOUDY    30  22  73 NW13      30.44R WCI  20
HOLLAND        CLOUDY    31  26  82 N10       30.46R WCI  22
GRAND RAPIDS   CLOUDY    32  26  78 NW9       30.43R WCI  24
IONIA          CLOUDY    32  29  88 NW12      30.42R WCI  23
KALAMAZOO      CLOUDY    32  29  88 N12       30.43R WCI  23
LUDINGTON      CLOUDY    27  21  79 NW10      30.47R WCI  17
MARSHALL       CLOUDY    32  32  99 N5        30.39R WCI  27
MOUNT PLEASANT CLOUDY    32  27  81 NW6       30.41R WCI  26
MUSKEGON       CLOUDY    31  23  72 NW13      30.46R WCI  21
SOUTH HAVEN    CLOUDY    32  28  86 N7        30.47R WCI  25
$$
MIZ016>042-211600-
NORTHERN LOWER MICHIGAN

CITY           SKY/WX    TMP DP  RH WIND       PRES   REMARKS
ALPENA         CLOUDY    26  20  77 NW14G21   30.41R WCI  14
BEAVER ISLAND  FLURRIES  22  15  74 NW8       30.47R WCI  13
BELLAIRE       CLOUDY    25  20  82 N6        30.46R WCI  18
CADILLAC       CLOUDY    24  21  87 NW8       30.39R WCI  16
CHARLEVOIX     CLOUDY    24  17  75 W10       30.49R WCI  13
FRANKFORT      CLOUDY    26  20  76 NW9       30.48R WCI  17
GAYLORD        CLOUDY    21  18  88 NW7       30.38R WCI  12
GRAYLING       CLOUDY    24  19  83 NW12      30.39R WCI  13
HARBOR SPRINGS FLURRIES  23  17  77 W7        30.45R WCI  14
HOUGHTON LAKE  CLOUDY    26  19  74 NW12G22   30.40R WCI  16
MANISTEE       CLOUDY    27  20  75 NW14      30.47R WCI  16
OSCODA         PTSUNNY   29  23  77 N8        30.40R WCI  21
PELLSTON       CLOUDY    22  15  75 NW12      30.45R WCI  10
ROGERS CITY    CLOUDY    24  18  77 W10G16    30.43R WCI  13
TRAVERSE CITY  CLOUDY    26  18  71 NW10      30.45R WCI  16
$$
MIZ007>008-015-211600-
EASTERN UPPER MICHIGAN

CITY           SKY/WX    TMP DP  RH WIND       PRES   REMARKS
KINROSS        FLURRIES  17  14  88 N10       30.42R WCI   5
MACKINAC ISLAN FLURRIES  20  14  76 NW8G16    30.44R WCI  11
NEWBERRY       LGT SNOW  19  17  93 W6        30.42R WCI  11
S. S. MARIE    CLOUDY    19  12  74 NW13      30.41R WCI   6
MUNISING         N/A     19  13  77 W6        30.47R WCI  11
$$
MIZ004>006-011>014-085-211600-
CENTRAL UPPER MICHIGAN

CITY           SKY/WX    TMP DP  RH WIND       PRES   REMARKS
MANISTIQUE     FLURRIES  19  11  68 W6        30.46R WCI  11
ESCANABA       PTSUNNY   18  10  73 W7        30.50R WCI   8
MENOMINEE      FAIR      19   9  65 VRB7      30.52R WCI  10
SAWYER-GWINN   FLURRIES  14   9  79 W7        30.42R WCI   4
$$
MIZ001>003-009>011-084-211600-
WESTERN UPPER MICHIGAN

CITY           SKY/WX    TMP DP  RH WIND       PRES   REMARKS
IRON MOUNTAIN  FAIR      12   5  73 W8        30.44R WCI   0
HOUGHTON       LGT SNOW  13   6  74 W16       30.41R WCI  -3
COPPER HARBOR    N/A     17  10  74 N14G22    30.43R WCI   3
IRONWOOD       FAIR       8   1  73 W8        30.46R WCI  -4
$$

ABBREVIATIONS USED IN REMARKS
   TC - TEMPERATURE IN CELSIUS
  WCI - WIND CHILL INDEX
   HX - HEAT INDEX
  VSB - VISIBILITY




USA.gov is the U.S. government's official web portal to all federal, state and local government web resources and services.